User: anonymous   Login
Location: Unspecified
(0.0000°N, 0.0000°E)
Time: 06:57:40
(UTC+00:00)
Language:

Transit VBN-1 - Orbit

View from above orbital plane
View from above orbital plane
View from above satellite
View from above satellite

Ground track
Ground track

The orbit data is extracted from the following two-line orbital elements,

1   670U 63038B   19082.73199973 +.00000062 +00000-0 +90223-4 0  9999
2   670 090.0614 329.5431 0042642 038.6534 020.8834 13.44308075719275
Epoch (UTC): 23 March 2019 17:34:04
Eccentricity: 0.0042642
inclination: 90.0614°
perigee height: 1061 km
apogee height: 1125 km
right ascension of ascending node: 329.5431°
argument of perigee: 38.6534°
revolutions per day: 13.44308075
mean anomaly at epoch: 20.8834°
orbit number at epoch: 71927

The dashed part of the orbit path shows where the satellite is in the earth's shadow,  

DLR